FW8927 Weather Reports


Display with metric or nautical units.
time (UTC)temp
F
wind
direction
speed
MPH
gust
MPH
rain 1hr
in
rain 24hr
in
rain mn
in
humidity
%
barometer
mb
20260510134556 64 269 4.0 14.0 0.00 0.00 0.00 76 1012.3
20260510133054 63 263 5.0 10.0 0.00 0.00 0.00 78 1012.4
20260510131552 61 192 3.0 8.0 0.00 0.00 0.00 81 1012.4
20260510130052 60 224 5.0 10.0 0.00 0.00 0.00 82 1012.4
20260510124551 59 254 3.0 10.0 0.00 0.00 0.00 84 1012.4
20260510123054 57 232 4.0 9.0 0.00 0.00 0.00 85 1012.4
20260510121556 57 220 4.0 8.0 0.00 0.00 0.00 86 1012.5
20260510120052 56 277 2.0 10.0 0.00 0.00 0.00 87 1012.2
20260510114604 55 219 3.0 7.0 0.00 0.00 0.00 88 1012.0
20260510113059 55 231 3.0 7.0 0.00 0.00 0.00 89 1011.9
20260510111553 54 236 3.0 7.0 0.00 0.00 0.00 90 1011.5
20260510110057 54 248 1.0 7.0 0.00 0.00 0.00 90 1011.5
20260510104550 54 268 2.0 6.0 0.00 0.00 0.00 89 1011.2
20260510103053 54 210 2.0 8.0 0.00 0.00 0.00 89 1011.0
20260510101615 54 0 2.0 8.0 0.00 0.00 0.00 89 1010.8
20260510100105 54 220 3.0 9.0 0.00 0.00 0.00 89 1010.8
20260510094556 54 215 2.0 6.0 0.00 0.00 0.00 89 1010.7
20260510093055 54 290 1.0 9.0 0.00 0.00 0.00 89 1010.7
20260510091549 54 235 2.0 5.0 0.00 0.00 0.00 89 1010.4
20260510090054 54 246 1.0 5.0 0.00 0.00 0.00 89 1010.2
20260510084609 55 225 1.0 7.0 0.00 0.00 0.00 88 1010.1
20260510083055 55 257 1.0 9.0 0.00 0.00 0.00 88 1010.0
20260510081556 55 216 2.0 7.0 0.00 0.00 0.00 87 1010.0
20260510074557 55 230 2.0 8.0 0.00 0.00 0.00 87 1009.8
20260510073058 56 260 1.0 7.0 0.00 0.00 0.00 86 1009.8
20260510071556 56 238 2.0 6.0 0.00 0.00 0.00 85 1009.8
20260510070103 57 247 1.0 4.0 0.00 0.00 0.00 84 1009.8
20260510064556 57 280 2.0 5.0 0.00 0.00 0.00 84 1009.8
20260510063101 57 238 1.0 4.0 0.00 0.00 0.00 85 1009.9
20260510061557 57 241 1.0 4.0 0.00 0.00 0.00 85 1009.8
20260510060100 57 217 2.0 5.0 0.00 0.00 0.00 85 1009.9
20260510054552 57 234 2.0 4.0 0.00 0.00 0.00 84 1010.0
20260510053100 57 235 1.0 4.0 0.00 0.00 0.00 84 1010.0
20260510051608 57 221 2.0 4.0 0.00 0.00 0.00 84 1010.1
20260510050108 58 232 2.0 4.0 0.00 0.00 0.00 83 1010.0
20260510044600 58 242 1.0 4.0 0.00 0.00 0.00 82 1010.1
20260510043052 59 219 2.0 5.0 0.00 0.00 0.00 81 1010.1
20260510041553 59 218 3.0 6.0 0.00 0.00 0.00 80 1010.1
20260510040110 59 260 2.0 7.0 0.00 0.00 0.00 80 1010.1
20260510034554 59 238 2.0 6.0 0.00 0.00 0.00 80 1010.0
20260510033059 59 257 2.0 7.0 0.00 0.00 0.00 80 1010.1
20260510031551 59 249 2.0 7.0 0.00 0.00 0.00 81 1010.1
20260510030100 59 225 1.0 3.0 0.00 0.00 0.00 82 1009.9
20260510024555 59 261 0.0 3.0 0.00 0.00 0.00 82 1009.9
20260510023052 59 219 0.0 5.0 0.00 0.00 0.00 82 1009.8
20260510021641 59 223 1.0 3.0 0.00 0.00 0.00 82 1009.7
20260510020051 60 261 1.0 4.0 0.00 0.00 0.00 81 1009.4
20260510014558 61 248 1.0 4.0 0.00 0.00 0.00 79 1009.2
20260510013100 61 259 0.0 3.0 0.00 0.00 0.00 78 1008.8
20260510011553 62 0 0.0 4.0 0.00 0.00 0.00 76 1008.8
20260510010058 63 298 1.0 4.0 0.00 0.00 0.00 75 1008.8
20260510004553 64 252 1.0 6.0 0.00 0.00 0.00 74 1008.6
20260510003103 64 244 3.0 8.0 0.00 0.00 0.00 73 1008.5
20260510001553 65 229 2.0 6.0 0.00 0.00 0.00 72 1008.1
20260510000056 65 270 2.0 6.0 0.00 0.00 0.00 72 1008.0
20260509234557 66 273 2.0 5.0 0.00 0.00 0.00 70 1008.0
20260509233053 67 266 2.0 8.0 0.00 0.00 0.00 68 1007.9
20260509231605 67 203 3.0 10.0 0.00 0.00 0.00 68 1007.8
20260509230100 68 306 4.0 9.0 0.00 0.00 0.00 65 1007.8
20260509224556 68 248 1.0 8.0 0.00 0.00 0.00 68 1007.9
20260509223103 68 213 3.0 10.0 0.00 0.00 0.00 65 1007.7
20260509221603 68 263 3.0 10.0 0.00 0.00 0.00 66 1007.7
20260509220100 68 233 6.0 10.0 0.00 0.00 0.00 65 1007.7
20260509214559 67 274 3.0 10.0 0.00 0.00 0.00 70 1007.7
20260509213105 67 265 5.0 9.0 0.00 0.00 0.00 69 1007.8
20260509211557 68 284 4.0 11.0 0.00 0.00 0.00 69 1007.7
20260509210053 67 238 3.0 14.0 0.00 0.00 0.00 70 1007.8
20260509204552 67 286 4.0 9.0 0.00 0.00 0.00 69 1007.8
20260509203053 66 161 4.0 9.0 0.00 0.00 0.00 73 1007.9
20260509201555 66 262 6.0 15.0 0.00 0.00 0.00 71 1008.0
20260509200054 67 263 5.0 11.0 0.00 0.00 0.00 72 1008.1
20260509194559 66 294 2.0 11.0 0.00 0.00 0.00 76 1008.1
20260509193056 64 249 3.0 10.0 0.00 0.00 0.00 77 1008.1
20260509191606 64 230 3.0 10.0 0.00 0.00 0.00 76 1008.0
20260509190055 65 231 5.0 10.0 0.00 0.00 0.00 75 1008.0
20260509184604 65 276 3.0 7.0 0.00 0.00 0.00 78 1008.1
20260509183059 63 219 3.0 9.0 0.00 0.00 0.00 78 1008.0
20260509181605 63 152 4.0 11.0 0.00 0.00 0.00 80 1007.9
20260509180112 62 233 5.0 12.0 0.00 0.00 0.00 79 1007.9
20260509174553 62 252 9.0 14.0 0.00 0.00 0.00 80 1007.8
20260509173105 62 215 8.0 13.0 0.00 0.00 0.00 79 1007.6
20260509171553 62 294 4.0 12.0 0.00 0.00 0.00 81 1007.8
20260509170052 61 199 5.0 14.0 0.00 0.00 0.00 83 1007.8
20260509164553 59 190 6.0 13.0 0.00 0.00 0.00 83 1008.1
20260509163058 58 217 6.0 9.0 0.00 0.00 0.00 83 1008.3
20260509161603 57 238 2.0 5.0 0.00 0.00 0.00 85 1008.5
20260509154556 57 240 1.0 6.0 0.00 0.00 0.00 84 1008.5
20260509153102 57 240 2.0 6.0 0.00 0.00 0.00 84 1008.3
20260509151552 57 223 2.0 8.0 0.00 0.00 0.00 82 1008.0
20260509150053 57 236 2.0 7.0 0.00 0.00 0.00 79 1008.0
20260509144558 58 236 2.0 12.0 0.00 0.00 0.00 79 1007.9
20260509143058 57 243 2.0 9.0 0.00 0.00 0.00 78 1007.6
20260509141556 57 209 7.0 13.0 0.00 0.00 0.00 77 1007.6
20260509140106 56 209 4.0 11.0 0.00 0.00 0.00 78 1007.6